Location: *
(32.8140°S, 174.6161°E)
Time: 05:30:22
(UTC+00:00)

Lacrosse 5 rocket - Pass Details

Date: 10 December 2019
Orbit: 465 x 632 km, 57.0° (Epoch: 26 January)

Event Time Altitude Azimuth Distance (km) Brightness Sun altitude
Exits shadow 16:06:00 16° 326° (NW) 1,349 2.7 -11.5°
Maximum altitude 16:08:56 83° 52° (NE) 519 1.2 -11.0°
Drops below altitude 10° 16:12:58 10° 140° (SE) 1,790 5.4 -10.4°
Sets 16:15:16 0° 140° (SE) 2,718 6.6 -10.0°
